FW2417 Weather Reports


time (UTC)temp
C
wind
direction
speed
KPH
gust
KPH
rain 1hr
cm
rain 24hr
cm
rain mn
cm
humidity
%
barometer
mb
20260507043009 13 143 0.0 1.6 0.00 0.00 0.00 76 1010.2
20260507041531 13 174 0.0 1.6 0.00 0.00 0.00 77 1010.3
20260507040008 13 207 0.0 1.6 0.00 0.00 0.00 76 1010.4
20260507034544 13 198 0.0 3.2 0.00 0.00 0.00 78 1010.4
20260507033118 13 218 0.0 4.8 0.00 0.00 0.00 78 1010.5
20260507031615 13 202 0.0 4.8 0.00 0.00 0.00 80 1010.3
20260507030108 13 224 0.0 4.8 0.00 0.00 0.00 81 1010.2
20260507024615 14 208 0.0 4.8 0.00 0.00 0.00 80 1010.3
20260507023115 14 211 0.0 4.8 0.00 0.00 0.00 80 1010.3
20260507021501 14 207 1.6 6.4 0.00 0.00 0.00 80 1010.3
20260507020110 14 212 1.6 6.4 0.00 0.00 0.00 81 1010.3
20260507014609 14 225 1.6 8.0 0.00 0.00 0.00 81 1010.5
20260507013114 14 214 0.0 4.8 0.00 0.00 0.00 81 1010.5
20260507011600 14 225 0.0 6.4 0.00 0.00 0.00 81 1010.7
20260507010043 14 207 0.0 4.8 0.00 0.00 0.00 81 1010.9
20260507004546 15 221 0.0 4.8 0.00 0.00 0.00 80 1011.0
20260507003037 15 212 0.0 6.4 0.00 0.00 0.00 80 1011.1
20260507001544 15 236 0.0 4.8 0.00 0.00 0.00 79 1011.1
20260507000117 15 243 0.0 6.4 0.00 0.00 0.00 78 1011.2
20260506234615 15 208 0.0 8.0 0.00 0.00 0.00 77 1011.2
20260506233116 15 215 3.2 16.1 0.00 0.00 0.00 76 1011.2
20260506231616 15 236 1.6 14.5 0.00 0.00 0.00 74 1011.3
20260506230113 15 205 0.0 6.4 0.00 0.00 0.00 73 1011.4
20260506224612 15 245 0.0 6.4 0.00 0.00 0.00 73 1011.4
20260506223127 16 229 0.0 12.9 0.00 0.00 0.00 74 1011.2
20260506221604 16 217 1.6 8.0 0.00 0.00 0.00 72 1011.4
20260506220051 16 227 0.0 6.4 0.00 0.00 0.00 70 1011.3
20260506214540 16 228 1.6 12.9 0.00 0.00 0.00 68 1011.3
20260506213005 16 231 1.6 14.5 0.00 0.00 0.00 67 1011.3
20260506211501 17 249 1.6 16.1 0.00 0.00 0.00 66 1011.2
20260506210137 17 232 1.6 14.5 0.00 0.00 0.00 63 1011.0
20260506204606 17 248 1.6 14.5 0.00 0.00 0.00 61 1010.7
20260506203104 18 248 1.6 17.7 0.00 0.00 0.00 58 1010.6
20260506201602 18 252 3.2 14.5 0.00 0.00 0.00 55 1010.4
20260506200137 18 240 1.6 12.9 0.00 0.00 0.00 54 1010.2
20260506194604 19 233 1.6 12.9 0.00 0.00 0.00 52 1010.0
20260506193051 20 214 3.2 12.9 0.00 0.00 0.00 49 1009.8
20260506191550 20 304 3.2 16.1 0.00 0.00 0.00 46 1009.6
20260506190040 21 245 1.6 17.7 0.00 0.00 0.00 44 1009.4
20260506184540 22 238 3.2 16.1 0.00 0.00 0.00 40 1009.3
20260506183009 23 240 0.0 4.8 0.00 0.00 0.00 33 1009.1
20260506181618 25 240 0.0 1.6 0.00 0.00 0.00 30 1008.9
20260506180108 25 242 0.0 6.4 0.00 0.00 0.00 30 1009.1
20260506174609 25 18 0.0 8.0 0.00 0.00 0.00 30 1009.2
20260506173124 25 238 0.0 4.8 0.00 0.00 0.00 28 1009.2
20260506171603 25 242 0.0 6.4 0.00 0.00 0.00 30 1009.4
20260506170057 25 249 0.0 9.7 0.00 0.00 0.00 29 1009.4
20260506164602 25 239 1.6 11.3 0.00 0.00 0.00 30 1009.5
20260506163107 25 56 0.0 9.7 0.00 0.00 0.00 27 1009.6
20260506161559 25 118 3.2 9.7 0.00 0.00 0.00 27 1009.7
20260506154547 25 203 0.0 4.8 0.00 0.00 0.00 29 1009.9
20260506153045 25 337 0.0 6.4 0.00 0.00 0.00 30 1010.1
20260506151546 24 20 0.0 3.2 0.00 0.00 0.00 32 1010.2
20260506150040 25 226 0.0 14.5 0.00 0.00 0.00 32 1010.5
20260506144533 25 256 1.6 8.0 0.00 0.00 0.00 31 1010.8
20260506143024 24 329 0.0 8.0 0.00 0.00 0.00 33 1010.9
20260506141507 24 236 0.0 4.8 0.00 0.00 0.00 33 1011.1
20260506140110 23 228 1.6 11.3 0.00 0.00 0.00 34 1011.2
20260506134620 24 205 1.6 9.7 0.00 0.00 0.00 32 1011.4
20260506133107 23 250 0.0 3.2 0.00 0.00 0.00 33 1011.6
20260506131613 23 75 0.0 3.2 0.00 0.00 0.00 34 1011.7
20260506130058 23 224 1.6 6.4 0.00 0.00 0.00 33 1011.8
20260506124611 23 103 0.0 3.2 0.00 0.00 0.00 34 1012.0
20260506123052 23 172 3.2 9.7 0.00 0.00 0.00 34 1012.2
20260506121545 23 233 0.0 6.4 0.00 0.00 0.00 34 1012.2
20260506120042 22 267 1.6 8.0 0.00 0.00 0.00 34 1012.4
20260506114546 22 170 1.6 6.4 0.00 0.00 0.00 33 1012.5
20260506113037 22 102 0.0 1.6 0.00 0.00 0.00 37 1012.5
20260506111503 22 120 0.0 1.6 0.00 0.00 0.00 39 1012.6
20260506110121 21 121 0.0 8.0 0.00 0.00 0.00 40 1012.7
20260506104501 21 117 0.0 4.8 0.00 0.00 0.00 43 1012.9
20260506103111 20 162 0.0 3.2 0.00 0.00 0.00 46 1013.0
20260506101603 19 100 0.0 1.6 0.00 0.00 0.00 48 1013.1
20260506100105 19 85 0.0 1.6 0.00 0.00 0.00 50 1013.1
20260506094558 18 7 0.0 1.6 0.00 0.00 0.00 51 1013.2
20260506093056 18 93 0.0 1.6 0.00 0.00 0.00 52 1013.2
20260506091544 18 39 0.0 4.8 0.00 0.00 0.00 52 1013.2
20260506090034 17 40 0.0 8.0 0.00 0.00 0.00 54 1013.1
20260506084505 17 127 0.0 8.0 0.00 0.00 0.00 57 1013.3
20260506083126 17 49 0.0 9.7 0.00 0.00 0.00 57 1013.3
20260506081613 16 68 3.2 6.4 0.00 0.00 0.00 58 1013.3
20260506080114 16 70 0.0 3.2 0.00 0.00 0.00 65 1013.4
20260506073110 16 75 0.0 1.6 0.00 0.00 0.00 73 1013.3
20260506071605 15 75 0.0 1.6 0.00 0.00 0.00 74 1013.3
20260506070124 16 75 0.0 0.0 0.00 0.00 0.00 73 1013.3
20260506061600 13 208 0.0 0.0 0.00 0.00 0.00 78 1013.1
20260506044542 12 208 0.0 1.6 0.00 0.00 0.00 82 1012.9